Regional Weather Roundup
Issued by NWS

Home | Current Version | Previous Version | Text Only | Print | Product List | Glossary On
Versions: 1 2 3 4 5 6 7 8 9 10 11 12 13 14 15 16 17 18 19 20 21 22 23 24 25 26 27 28 29 30 31 32 33 34 35 36 37 38 39 40 41 42 43 44 45 46 47 48 49 50
552
ASUS43 KDTX 301501
RWRMI
MICHIGAN HOURLY REGIONAL WEATHER ROUNDUP
NATIONAL WEATHER SERVICE DETROIT/PONTIAC MI
1100 AM EDT FRI SEP 30 2016

NOTE: "FAIR" INDICATES FEW OR NO CLOUDS BELOW 12,000 FEET WITH NO
SIGNIFICANT WEATHER AND/OR OBSTRUCTION TO VISIBILITY.

MIZ047>049-052>055-059>063-066>070-074>076-081>083-301600-
SOUTHEAST LOWER MICHIGAN

CITY           SKY/WX    TMP DP  RH WIND       PRES   REMARKS
ADRIAN         CLOUDY    62  61  96 E10       30.15R
ALMA           DRIZZLE   59  59  99 NE14      30.24R
ANN ARBOR      CLOUDY    60  60 100 NE8       30.16R FOG
BAD AXE        LGT RAIN  60  56  85 E9        30.26S
CARO           CLOUDY    60  55  83 E8        30.24R
DETROIT CITY   CLOUDY    60  59  96 NE14      30.17S
DETROIT        CLOUDY    62  60  93 NE6       30.17R
FLINT          CLOUDY    58  56  93 E9        30.21S
GROSSE ILE     CLOUDY    63  60  90 E5        30.16R
HILLSDALE      CLOUDY    61  59  94 E10       30.14R
HOWELL         CLOUDY    59  58  96 NE7       30.19R

CITY           SKY/WX    TMP DP  RH WIND       PRES   REMARKS
JACKSON        CLOUDY    61  61 100 E9        30.16S
LAMBERTVILLE   CLOUDY    65  60  81 E5        30.14S
LANSING        CLOUDY    59  56  89 NE12      30.20R
LAPEER         CLOUDY    58  56  91 E8        30.22S
MASON          CLOUDY    59  58  95 NE8       30.18S
MONROE         CLOUDY    63  61  93 E5        30.14R
MT. CLEMENS    CLOUDY    59  57  91 NE14      30.16F
PONTIAC        CLOUDY    57  55  93 E12       30.18R FOG
PORT HURON     CLOUDY    59  55  88 E9        30.21F
TRI CITIES     CLOUDY    61  57  87 NE14      30.25S
MIDLAND        CLOUDY    61  57  86 NE15G21   30.25R
TROY           CLOUDY    59  56  89 NE12G20   30.19S
SAGINAW HB     CLOUDY    59  55  88 NE8       30.24R
$$
MIZ043>046-050>051-056>058-064>065-071>073-077>080-301600-
SOUTHWEST LOWER MICHIGAN

CITY           SKY/WX    TMP DP  RH WIND       PRES   REMARKS
BATTLE CREEK   CLOUDY    61  60  97 NE13      30.17S
BENTON HARBOR  CLOUDY    62  57  83 NE13      30.15R
BIG RAPIDS     CLOUDY    59  58  97 E7        30.25S FOG
COLDWATER      CLOUDY    62  61  99 NE9       30.13F
FREMONT        CLOUDY    59  58  97 NE12      30.23S
HOLLAND        CLOUDY    61  58  90 NE7       30.20R
GRAND RAPIDS   LGT RAIN  59  56  89 E10       30.21R
IONIA          CLOUDY    57  56  94 NE10G18   30.21R
KALAMAZOO      CLOUDY    61  57  87 NE10      30.16S FOG
LUDINGTON      CLOUDY    61  56  85 NE12      30.26R
MARSHALL       CLOUDY    61  60  98 NE6       30.16R
MOUNT PLEASANT PTSUNNY   59  58  94 NE7       30.25R
MUSKEGON       CLOUDY    61  58  90 NE15G21   30.22R
SOUTH HAVEN    CLOUDY    63  60  90 E14G22    30.17R
$$
MIZ016>042-301600-
NORTHERN LOWER MICHIGAN

CITY           SKY/WX    TMP DP  RH WIND       PRES   REMARKS
ALPENA         PTSUNNY   63  55  75 NE17      30.34S
BEAVER ISLAND  MOSUNNY   62  56  80 NE12G18   30.34S
BELLAIRE       CLOUDY    64  54  71 E10G17    30.30S
CADILLAC       CLOUDY    58  55  89 NE12      30.27R
CHARLEVOIX     CLOUDY    62  55  77 E16       30.34F
FRANKFORT      CLOUDY    62  55  78 E5        30.28R
GAYLORD        CLOUDY    60  52  74 E15G23    30.31S
GRAYLING       CLOUDY    61  55  82 E15G22    30.31R
HARBOR SPRINGS PTSUNNY   62  55  77 E20G31    30.33S
HOUGHTON LAKE  CLOUDY    59  55  87 E14       30.29S
MANISTEE       CLOUDY    61  55  81 E10G22    30.27R
OSCODA         CLOUDY    62  55  78 E14G23    30.30R
PELLSTON       MOSUNNY   63  54  72 E14       30.35S
ROGERS CITY    CLOUDY    61  55  79 E14       30.38R
TRAVERSE CITY  CLOUDY    64  54  69 NE9       30.28R
$$
MIZ007>008-015-301600-
EASTERN UPPER MICHIGAN

CITY           SKY/WX    TMP DP  RH WIND       PRES   REMARKS
KINROSS        SUNNY     60  51  72 E12       30.39S
MACKINAC ISLAN SUNNY     62  54  75 E8        30.37R
NEWBERRY       CLOUDY    61  54  77 NE10      30.38S
S. S. MARIE    SUNNY     62  50  64 E8        30.39S
MUNISING         N/A     64  57  78 NE14      30.39S
$$
MIZ004>006-011>014-085-301600-
CENTRAL UPPER MICHIGAN

CITY           SKY/WX    TMP DP  RH WIND       PRES   REMARKS
MANISTIQUE     MOSUNNY   62  54  74 N8        30.36S
ESCANABA       SUNNY     61  54  77 N10       30.35F
MENOMINEE      CLOUDY    60  55  83 NE10      30.33S
SAWYER-GWINN   PTSUNNY   59  55  88 NE10      30.40S
$$
MIZ001>003-009>011-084-301600-
WESTERN UPPER MICHIGAN

CITY           SKY/WX    TMP DP  RH WIND       PRES   REMARKS
IRON MOUNTAIN  MOSUNNY   59  53  80 MISG      30.37S
HOUGHTON       CLOUDY    58  55  90 E8        30.43S
COPPER HARBOR    N/A     61  57  87 SE8       30.43F
IRONWOOD       CLOUDY    52  51  97 E6        30.43F
$$

ABBREVIATIONS USED IN REMARKS
   TC - TEMPERATURE IN CELSIUS
  WCI - WIND CHILL INDEX
   HX - HEAT INDEX
  VSB - VISIBILITY





USA.gov is the U.S. government's official web portal to all federal, state and local government web resources and services.